WGS 10 (USA 291)

Last updated on Mon Oct 13 2025 00:02:49 GMT+0000 (Coordinated Universal Time)

1 44071U 19014A 25284.64419316 .00000000 00000+0 00000+0 0 9994 2 44071 0.0151 212.5095 0000356 46.4674 53.7179 1.00269265 24126
UTC large
Height (km)
Speed (km/s)
/
Latitude / Longitude
Inclination (degrees)
Orbital Period (minutes)
Azimuth
Elevation
Range (km)
Doppler Factor

Next 0 passes for location: London (51.5072 / 0.1276)

Sorry there are no passes over London.